Home   Weather   Columbus   Past weeks

Flag for USA Past Weather in Columbus, Ohio, USA — Yesterday and Last 2 Weeks

Now
52 °F

Light rain. Mostly cloudy.


Feels Like: 48 °F
Forecast: 45 / 53 °F
Wind: 10 mph from Northeast

Location: John Glenn Columbus International Airport

Current Time: Jan 23, 2017 at 9:52:41 am

Latest Report: Jan 23, 2017 at 8:51 am


Visibility: 6 mi

Pressure: 29.47 "Hg

Humidity: 83%

Dew Point: 47 °F

Location of ColumbusLocation

Past Weather in Columbus — Graph

°F

Columbus Temperature Yesterday

Maximum temperature yesterday: 64 °F (at 2:51 pm)
Minimum temperature yesterday: 46 °F (at 5:51 am)
Average temperature yesterday: 56 °F

High & Low Weather Summary for the Past Weeks

 TemperatureHumidityPressure
High67 °F (Jan 12, 11:51 am)100% (Jan 16, 7:51 pm)30.73 "Hg (Jan 16, 7:51 pm)
Low10 °F (Jan 8, 7:51 am)40% (Jan 10, 2:51 am)29.41 "Hg (Jan 23, 2:51 am)
Average43 °F76%30.10 "Hg
* Reported Jan 8 7:51 am — Jan 23 7:51 am, Columbus, Weather by CustomWeather, © 2017

Note: Actual official high and low records may vary slightly from our data, if they occured in-between our weather recording intervals... More about our weather records

Advertising

Columbus Weather History for the Previous 24 Hours

Scroll right to see more
 ConditionsComfort  
Time TempWeatherWind HumidityBarometerVisibility
7:51 am
Mon, Jan 23
52 °FLight rain. Cloudy.14 mph83%29.45 "Hg9 mi
6:51 am53 °FLight rain. Mostly cloudy.9 mph80%29.44 "Hg10 mi
5:51 am53 °FOvercast.10 mph83%29.42 "Hg10 mi
4:51 am53 °FLight rain. Mostly cloudy.9 mph83%29.42 "Hg10 mi
4:31 am53 °FLight rain. Overcast.9 mph86%29.42 "Hg10 mi
3:51 am54 °FLight rain. Mostly cloudy.12 mph80%29.42 "Hg7 mi
3:25 am55 °FMostly cloudy.9 mph77%29.43 "Hg10 mi
2:51 am56 °FMostly cloudy.12 mph75%29.41 "Hg10 mi
1:51 am56 °FOvercast.14 mph75%29.42 "Hg10 mi
12:51 am56 °FPassing clouds.14 mph75%29.42 "Hg10 mi
11:51 pm
Sun, Jan 22
56 °FOvercast.9 mph75%29.44 "Hg10 mi
10:51 pm58 °FOvercast.10 mph70%29.46 "Hg10 mi
9:51 pm57 °FOvercast.10 mph69%29.46 "Hg10 mi
8:51 pm58 °FMostly cloudy.13 mph67%29.48 "Hg10 mi
7:51 pm60 °FMostly cloudy.13 mph62%29.48 "Hg10 mi
6:51 pm60 °FPartly cloudy.15 mph60%29.49 "Hg10 mi
5:51 pm61 °FPartly cloudy.13 mph60%29.48 "Hg10 mi
4:51 pm61 °FBroken clouds.10 mph60%29.47 "Hg10 mi
3:51 pm63 °FMostly cloudy.12 mph56%29.48 "Hg10 mi
2:51 pm64 °FHigh level clouds.12 mph54%29.47 "Hg10 mi
1:51 pm63 °FMore clouds than sun.8 mph56%29.48 "Hg10 mi
12:51 pm63 °FMostly cloudy.8 mph60%29.52 "Hg10 mi
11:51 am63 °FMostly cloudy.8 mph65%29.58 "Hg10 mi
10:51 am55 °FMore clouds than sun.No wind83%29.60 "Hg10 mi
9:51 am52 °FHigh level clouds.7 mph89%29.60 "Hg7 mi
Weather by CustomWeather, © 2017

See weather overviewHow to use our weather pages